Terminal Aerodrome Forecast
Issued by NWS Upton, NY

Home | Current Version | Previous Version | Text Only | Print | Product List | Glossary On
Versions: 1 2 3 4 5 6 7 8 9 10 11 12 13 14 15 16 17 18 19 20 21 22 23 24 25 26 27 28 29 30
000
FTUS41 KOKX 032320
TAFJFK
TAF
KJFK 032320Z 0400/0506 18010KT P6SM FEW060 SCT100
     FM040200 19007KT P6SM SKC
     FM040500 VRB04KT P6SM SKC
     FM041400 19007KT P6SM SKC
     FM041800 19014G20KT P6SM SKC
     FM050300 21011KT P6SM SCT250=

USA.gov is the U.S. government's official web portal to all federal, state and local government web resources and services.